Location: Danville Conservation Area
(38.8674°N, 91.5143°W)
Time: 00:32:46
(UTC-06:00)

Envisat - Pass Details

Date: 02 December 2021
Orbit: 764 x 766 km, 98.2° (Epoch: 23 January)

Event Time Altitude Azimuth Distance (km) Brightness Sun altitude
Rises 17:01:35 0° 191° (SSW) 3,216 6.8 -3.8°
Reaches altitude 10° 17:04:07 10° 202° (SSW) 2,294 6.2 -4.3°
Maximum altitude 17:08:34 31° 264° (W) 1,318 5.2 -5.1°
Drops below altitude 10° 17:13:04 10° 326° (NW) 2,309 5.6 -5.9°
Sets 17:15:38 0° 337° (NNW) 3,240 6.3 -6.3°
